CST,Max TemperatureF,Mean TemperatureF,Min TemperatureF,Max Dew PointF,MeanDew PointF,Min DewpointF,Max Humidity, Mean Humidity, Min Humidity, Max Sea Level PressureIn, Mean Sea Level PressureIn, Min Sea Level PressureIn, Max VisibilityMiles, Mean VisibilityMiles, Min VisibilityMiles, Max Wind SpeedMPH, Mean Wind SpeedMPH, Max Gust SpeedMPH,PrecipitationIn, CloudCover, Events, WindDirDegrees
2012-11-1,82,66,49,36,30,24,42,28,13,30.05,29.94,29.84,10,9,4,20,12,24,0.00,0,,225
2012-11-2,84,67,49,37,28,14,54,31,7,30.07,29.86,29.78,10,10,10,24,13,32,0.00,0,,259
2012-11-3,65,52,38,35,32,28,85,56,26,30.19,30.11,29.96,10,10,10,17,10,21,0.00,0,,52
2012-11-4,74,56,37,40,34,29,76,65,53,30.21,30.11,30.00,10,10,10,16,8,22,0.00,0,,197
2012-11-5,68,54,40,35,30,26,56,41,25,30.21,30.13,30.09,10,10,10,20,10,23,0.00,0,,316
2012-11-6,75,59,42,34,31,28,58,39,19,30.16,30.12,30.08,10,10,10,15,9,22,0.00,0,,358
2012-11-7,80,61,42,38,34,29,65,41,16,30.14,30.01,29.86,10,10,10,24,15,29,0.00,0,,182
2012-11-8,84,65,46,35,27,21,50,30,10,29.97,29.81,29.74,10,10,9,24,12,31,0.00,0,,222
2012-11-9,80,66,51,44,36,29,77,47,17,29.79,29.74,29.67,10,10,10,31,17,39,0.00,0,,219
2012-11-10,78,65,52,53,40,21,93,56,19,29.75,29.64,29.50,10,9,4,43,20,53,0.01,4,,216
2012-11-11,53,40,26,28,19,13,58,42,25,30.31,29.98,29.71,10,10,10,18,9,26,0.00,2,,337
2012-11-12,52,37,21,19,9,-3,74,43,11,30.48,30.41,30.34,10,10,10,14,6,17,0.00,0,,195
2012-11-13,58,43,28,18,16,12,58,40,21,30.41,30.29,30.17,10,10,10,29,15,36,0.00,0,,190
2012-11-14,67,47,26,21,16,9,58,36,13,30.32,30.22,30.11,10,10,10,24,12,31,0.00,0,,223
2012-11-15,62,50,38,23,20,17,52,36,20,30.34,30.19,30.08,10,10,10,23,13,31,0.00,0,,335
2012-11-16,63,47,30,41,32,21,71,54,36,30.39,30.31,30.21,10,10,10,21,12,29,0.00,1,,152
2012-11-17,64,53,41,43,40,37,86,66,46,30.26,30.16,30.07,10,10,10,29,19,36,0.00,2,,183
2012-11-18,71,59,46,48,43,38,83,57,31,30.13,30.01,29.96,10,10,10,29,16,35,T,2,Rain,199
2012-11-19,73,56,39,45,33,26,92,55,17,30.18,30.09,30.00,10,10,10,20,8,24,0.00,0,,324
2012-11-20,72,53,34,33,29,24,64,41,17,30.26,30.19,30.14,10,10,8,16,8,20,0.00,0,,192
2012-11-21,75,55,35,44,36,24,79,53,27,30.21,30.08,29.91,10,10,10,29,17,37,0.00,0,,194
2012-11-22,75,61,46,46,33,20,77,45,13,30.30,29.99,29.86,10,10,10,24,16,32,0.00,0,,320
2012-11-23,54,43,31,28,18,12,64,42,19,30.56,30.47,30.32,10,10,10,18,8,23,0.00,0,,29
2012-11-24,67,49,31,23,18,14,45,31,16,30.38,30.11,29.87,10,10,10,26,16,32,0.00,0,,209
2012-11-25,66,50,34,24,18,14,54,35,15,29.90,29.84,29.78,10,10,10,20,8,25,0.00,0,,311
2012-11-26,48,37,25,27,22,18,75,58,41,30.45,30.17,29.81,10,10,10,28,13,35,0.00,0,,360
2012-11-27,58,39,19,24,20,15,84,55,25,30.46,30.32,30.20,10,10,10,23,11,28,0.00,0,,213
2012-11-28,72,49,26,24,20,17,75,44,13,30.25,30.16,30.06,10,10,10,17,10,23,0.00,0,,227
2012-11-29,72,55,38,31,24,14,64,38,11,30.06,29.99,29.92,10,10,10,16,9,22,0.00,0,,191
2012-11-30,70,52,34,23,20,17,56,35,14,30.02,29.93,29.82,10,10,10,22,9,26,0.00,0,,248